KC8RP Weather Reports


time (UTC)temp
C
wind
direction
speed
KPH
gust
KPH
rain 1hr
cm
rain 24hr
cm
rain mn
cm
humidity
%
barometer
mb
20260507114529 5 360 0.0 4.8 0.00 0.00 0.00 84 1013.3
20260507113027 4 360 1.6 4.8 0.00 0.00 0.00 85 1013.4
20260507111524 3 360 0.0 0.0 0.00 0.00 0.00 86 1013.2
20260507110022 3 360 0.0 0.0 0.00 0.00 0.00 86 1013.0
20260507104526 3 360 0.0 0.0 0.00 0.00 0.00 86 1012.7
20260507103023 3 360 0.0 0.0 0.00 0.00 0.00 86 1012.7
20260507101527 4 360 0.0 0.0 0.00 0.00 0.00 86 1012.7
20260507100026 4 360 0.0 0.0 0.00 0.00 0.00 86 1012.6
20260507094515 4 360 0.0 0.0 0.00 0.00 0.00 86 1012.7
20260507093012 4 360 0.0 0.0 0.00 0.00 0.00 86 1012.6
20260507091528 5 360 0.0 0.0 0.00 0.00 0.00 86 1012.5
20260507090009 5 360 0.0 0.0 0.00 0.00 0.00 87 1012.4
20260507084508 5 360 0.0 0.0 0.00 0.00 0.00 87 1012.2
20260507083006 5 360 0.0 0.0 0.00 0.00 0.00 86 1012.1
20260507081505 5 360 0.0 0.0 0.00 0.00 0.00 87 1012.2
20260507080007 5 360 0.0 0.0 0.00 0.00 0.00 87 1012.1
20260507074508 5 360 0.0 0.0 0.00 0.00 0.00 86 1012.0
20260507073004 5 360 0.0 0.0 0.00 0.00 0.00 86 1012.1
20260507071502 5 360 0.0 0.0 0.00 0.00 0.00 86 1012.0
20260507070139 6 360 0.0 0.0 0.00 0.00 0.00 86 1012.1
20260507064600 6 360 0.0 0.0 0.00 0.00 0.00 85 1012.1
20260507063101 6 360 0.0 0.0 0.00 0.00 0.00 85 1012.3
20260507061556 6 360 0.0 0.0 0.00 0.00 0.00 85 1012.2
20260507060054 6 360 0.0 0.0 0.00 0.00 0.00 85 1012.2
20260507054557 6 360 0.0 0.0 0.00 0.00 0.00 85 1012.4
20260507053054 6 360 0.0 0.0 0.00 0.00 0.00 85 1012.3
20260507051553 6 360 0.0 0.0 0.00 0.00 0.00 85 1012.2
20260507050052 6 360 0.0 0.0 0.00 0.00 0.00 85 1012.4
20260507044550 6 360 0.0 0.0 0.00 0.00 0.00 84 1012.5
20260507043048 6 360 0.0 0.0 0.00 0.00 0.00 83 1012.3
20260507041546 7 360 0.0 0.0 0.00 0.00 0.00 82 1012.2
20260507040048 7 360 0.0 0.0 0.00 0.00 0.00 82 1012.2
20260507034546 7 360 0.0 0.0 0.00 0.00 0.00 82 1012.1
20260507033043 7 360 0.0 0.0 0.00 0.00 0.00 81 1012.2
20260507031543 7 360 0.0 0.0 0.00 0.00 0.00 81 1012.2
20260507030043 8 360 0.0 0.0 0.00 0.00 0.00 81 1012.2
20260507024543 8 360 0.0 0.0 0.00 0.00 0.00 79 1012.2
20260507023039 9 360 0.0 0.0 0.00 0.00 0.00 79 1012.2
20260507021540 9 360 0.0 0.0 0.00 0.00 0.00 77 1012.1
20260507020037 9 360 0.0 1.6 0.00 0.00 0.00 76 1011.9
20260507014541 10 360 0.0 3.2 0.00 0.00 0.00 74 1011.8
20260507013035 10 360 0.0 3.2 0.00 0.00 0.00 72 1011.6
20260507011533 11 360 0.0 0.0 0.00 0.00 0.00 70 1011.3
20260507010032 11 360 0.0 1.6 0.00 0.00 0.00 66 1011.4
20260507004531 12 360 0.0 1.6 0.00 0.00 0.00 63 1011.3
20260507003029 12 360 0.0 4.8 0.00 0.00 0.00 61 1011.3
20260507001528 13 360 1.6 8.0 0.00 0.00 0.00 58 1011.1
20260507000028 13 360 1.6 9.7 0.00 0.00 0.00 57 1010.8
20260506234527 13 360 3.2 8.0 0.00 0.00 0.00 59 1010.7
20260506233026 13 360 3.2 14.5 0.00 0.00 0.00 58 1010.7
20260506231527 13 360 6.4 14.5 0.00 0.00 0.00 55 1010.6
20260506230024 14 360 6.4 12.9 0.00 0.00 0.00 54 1010.6
20260506224524 14 360 4.8 16.1 0.00 0.00 0.00 55 1010.7
20260506223023 14 360 3.2 9.7 0.00 0.00 0.00 54 1010.8
20260506221524 14 360 4.8 12.9 0.00 0.00 0.00 54 1010.9
20260506220029 14 360 3.2 9.7 0.00 0.00 0.00 53 1011.1
20260506214521 14 360 3.2 8.0 0.00 0.00 0.00 55 1011.0
20260506213020 14 360 4.8 16.1 0.00 0.00 0.00 55 1010.8
20260506211521 14 360 3.2 16.1 0.00 0.00 0.00 54 1010.8
20260506210021 14 360 6.4 12.9 0.00 0.00 0.00 52 1010.5
20260506204524 14 360 4.8 16.1 0.00 0.00 0.00 54 1010.5
20260506203018 15 360 8.0 17.7 0.00 0.00 0.00 54 1010.6
20260506201528 14 360 1.6 9.7 0.00 0.00 0.00 55 1010.5
20260506200025 14 360 3.2 12.9 0.00 0.00 0.00 54 1010.6
20260506194517 15 360 1.6 12.9 0.00 0.00 0.00 52 1010.5
20260506193016 15 360 6.4 16.1 0.00 0.00 0.00 51 1010.4
20260506191514 15 360 6.4 17.7 0.00 0.00 0.00 53 1010.1
20260506190014 15 360 1.6 12.9 0.00 0.00 0.00 58 1010.3
20260506184515 15 360 6.4 14.5 0.00 0.00 0.00 54 1010.2
20260506183012 16 360 6.4 16.1 0.00 0.00 0.00 53 1010.0
20260506181515 16 360 4.8 17.7 0.00 0.00 0.00 51 1010.0
20260506180012 16 360 3.2 16.1 0.00 0.00 0.00 51 1010.2
20260506174512 16 360 4.8 12.9 0.00 0.00 0.00 52 1010.4
20260506173008 16 360 4.8 17.7 0.00 0.00 0.00 55 1010.6
20260506171507 15 360 9.7 20.9 0.00 0.00 0.00 55 1010.5
20260506170004 15 360 4.8 14.5 0.00 0.00 0.00 63 1010.7
20260506164604 14 360 4.8 17.7 0.00 0.00 0.00 59 1010.9
20260506163200 14 360 6.4 19.3 0.00 0.00 0.00 59 1010.7
20260506161600 14 360 3.2 17.7 0.00 0.00 0.00 62 1010.8
20260506160052 13 360 8.0 16.1 0.00 0.00 0.00 62 1010.6
20260506154552 12 360 6.4 14.5 0.00 0.00 0.00 65 1010.6
20260506153047 12 360 3.2 9.7 0.00 0.00 0.00 64 1010.6
20260506151542 12 360 4.8 16.1 0.00 0.00 0.00 69 1010.9
20260506150040 11 360 4.8 14.5 0.00 0.00 0.00 70 1010.1
20260506144538 10 360 3.2 16.1 0.00 0.00 0.00 70 1009.8
20260506143034 10 360 4.8 19.3 0.00 0.00 0.00 76 1009.4
20260506141532 9 360 3.2 19.3 0.00 0.00 0.00 78 1009.5
20260506140038 9 360 6.4 17.7 0.00 0.00 0.00 80 1009.5
20260506134529 8 360 4.8 16.1 0.00 0.00 0.00 82 1009.4
20260506133028 8 360 6.4 12.9 0.00 0.00 0.00 84 1009.5
20260506131532 8 360 4.8 14.5 0.00 0.00 0.00 85 1009.3
20260506130026 7 360 3.2 9.7 0.00 0.00 0.00 85 1009.3
20260506124524 7 360 3.2 9.7 0.00 0.00 0.00 86 1009.0
20260506123022 7 360 3.2 9.7 0.00 0.00 0.00 87 1008.8
20260506121519 7 360 0.0 9.7 0.00 0.00 0.00 88 1008.8
20260506120016 7 360 3.2 12.9 0.00 0.00 0.00 89 1008.2